Powrót do katalogu

DELTA 1 DEB

AktywnySSO
NORAD 14465·DEBRIS·🇺🇸 United States

Wystrzelony Mar 5, 1978 z Vandenberg Space Force Base

Loading…

Następne Przeloty (najbliższe 24 godziny)

TLE

ŚwieżeSource: Space-Track

Epoka: Sep 14, 2026, 09:04 UTC

1 14465U 78026GF  26257.37843534  .00001373  00000-0  65771-3 0  9995
2 14465  98.7801  54.7466 0103337 340.0312  48.9404 14.17902245231502

Śledź DELTA 1 DEB w czasie rzeczywistym z AllMySat

Download on the App Store